Location: Boiro
(42.6475°N, 8.8834°W)
Time: 12:19:40
(UTC+02:00)

COSMOS 2251 DEB - Pass Details

Date: 06 July 2022
Orbit: 738 x 847 km, 74.1° (Epoch: 16 August)

Event Time Altitude Azimuth Distance (km) Brightness Sun altitude
Rises 05:54:59 0° 346° (NNW) 3,217 ? -10.8°
Reaches altitude 10° 05:57:30 10° 353° (N) 2,276 ? -10.4°
Maximum altitude 06:02:21 41° 64° (ENE) 1,064 ? -9.8°
Drops below altitude 10° 06:07:08 10° 135° (SE) 2,240 ? -9.2°
Sets 06:09:35 0° 142° (SE) 3,159 ? -8.8°
